sat.trackr.live / text

‹ back to catalog

STARLINK-37467

NORAD 68855 · 2026-094S

PAYLOAD ACTIVE UNKNOWN

§ Identity

Operator
Country
US
Launch date
2026-04-26
Launch site
AFWTR
Launch vehicle
Mass (kg)
RCS (m²)

Purposes: comms

External: N2YO · Heavens-Above · Gunter

§ Orbital elements

Epoch: 2026-09-20T00:07:42.461184Z

Period
93.91 min
Inclination
97.2861°
Eccentricity
0.0001712
Mean motion
15.33449876 rev/d
Perigee alt
464.4 km
Apogee alt
466.7 km
Semi-major
6,843.7 km
B*
3.2214e-4
RAAN
276.1653°
Arg perigee
98.3961°
Mean anomaly
261.7476°
Rev number
2,258

§ Raw data

STARLINK-374671 68855U 26094S   26263.00535256  .00010341  00000+0  32214-3 0  99912 68855  97.2861 276.1653 0001712  98.3961 261.7476 15.33449876 22584

JSON: /api/v1/satellites/68855 · /tle

For live sub-satellite position, see the globe view (requires WebGL).

§ Visibility from observer

Set your observer location to see the next 7 days of passes ≥ 10°. The values pass through the URL so the page stays shareable.

No JS? Fill the form by hand. The geolocation button needs JavaScript.